NORSAT 2

Satellite information

Favourite Embed

Satellite Type and Status

PAYLOADIN ORBIT

Key statistics

Satellite NORSAT 2 at a glance.

Uptime

2856

Days in orbit

Revolutions

≈ 15.1

Per day

Orbit

SSO

Sun Synchronous Orbit

Inclination

97.4

Latest

Satellite identification and parameters

Extended collection of information and parameters for NORSAT 2.

Object identification

Identified? True

Debris? False

Object name: NORSAT 2

International designator: 2017-042D

Object number (NORAD): 42828

Object ID (CCSDS): 42828

Country: NORWAY (NOR)

Current information (Y/N): Y

RCS size: MEDIUM

Orbital parameters

Period: 95.233 minutes

Inclination: 97.3846 deg

SMA: 6907.984 km

Apoapsis: 538.177 km

Periapsis: 521.521 km

RAAN: 307.0324 deg

Eccentricy: 0.0012056

Argument of periapsis: 27.3227 deg

Mean anomaly: 332.8635 deg

Mean motion: 15.12083531 rev/day

Mean motion (dot): 0.00007948 rev/day2

B* drag term: 0.00046453 1/REarth

Two-line elements (TLE)

Creation date: May 9, 2025, 2:46 a.m.

Reference frame: TEME

Reference center: EARTH

Epoch: May 8, 2025, 11:17 a.m. UTC

TLE line 0: 0 NORSAT 2

TLE line 1: 1 42828U 17042D 25128.47021493 .00007948 00000-0 46453-3 0 9999

TLE line 2: 2 42828 97.3846 307.0324 0012056 27.3227 332.8635 15.12083531426392

Live tracking on map

Real-time ground track for satellite NORSAT 2.

In-orbit conjunctions

There are no conjunctions computed for NORSAT 2, at the moment. Check back to stay up to date, as we update our databases every day.

Go to all conjunctions

Associated space launch

Kanopus-V-IK is a small Russian remote sensing satellite for monitoring wildfires. Weighing about 473 kg, it is intended for 5 years of operation in a 510 km sun-synchronous orbit.

NORSAT 2 was lifted into orbit during the mission ‘Soyuz-2.1a/Fregat | Kanopus-V-IK’, on board a Soyuz 2.1a/Fregat-M space rocket.

The launch took place on July 14, 2017, 6:36 a.m. from 31/6.

For more information about the launch, click the button.

Launch to space Soyuz-2.1a/Fregat | Kanopus-V-IK
Soyuz-2.1a/Fregat | Kanopus-V-IK

Agency: N/A

Status: Launch was a Partial Failure

Launch date: July 14, 2017, 6:36 a.m. UTC

Rocket: Soyuz 2.1a/Fregat-M

Launch pad: 31/6

Location: Baikonur Cosmodrome, Republic of Kazakhstan

...

Latest news about this satellite

There are no fresh news available about this satellite. Check back as we update our databases every day.


Newsletter sign-up

Weekly statistics, charts and insights to help you stay on top of the space industry.